Weather History for Medford, WI

Change the Weather History Date:

Tuesday, May 28, 2013

  Actual Average Record
Temperature  
Mean Temperature 54 °F -  
Max Temperature 57 °F 71 °F 87 °F (1998)
Min Temperature 50 °F 48 °F 31 °F (1979)
Degree Days  
Heating Degree Days 12    
Growing Degree Days 4 (Base 50)    
Moisture  
Dew Point 51 °F    
Average Humidity 92    
Maximum Humidity 100    
Minimum Humidity 87    
Precipitation  
Precipitation 0.00 in - - ()
Sea Level Pressure  
Sea Level Pressure 29.79 in    
Wind  
Wind Speed 9 mph (ESE)    
Max Wind Speed 15 mph    
Max Gust Speed 20 mph    
Visibility 6 miles    
Events Fog , Rain    
Averages and records for this station are not official NWS values.
T = Trace of Precipitation, MM = Missing Value Source: NWS Daily Summary

Daily Weather History Graph

Daily Weather History Graph

Search for Another Location

Airport:

Trip Planner

Search our weather history database for the weather conditions in past years. The results will help you decide how hot, cold, wet, or windy it might be!

Date:

Astronomy

May. 28, 2013 Rise Set
Actual Time 5:19 AM CDT 8:37 PM CDT
Civil Twilight 4:43 AM CDT 9:14 PM CDT
Nautical Twilight 3:56 AM CDT 10:01 PM CDT
Astronomical Twilight 2:58 AM CDT 10:59 PM CDT
Moon 11:55 PM CDT (5/28) 9:12 AM CDT (5/28)
Length of Visible Light 16h 30m
Length of Day
15h 18m
Waning Gibbous, 82% of the Moon is Illuminated
May 28
Waning Gibbous
May 31
Last Quarter
Jun 8
New
Jun 16
First Quarter
Jun 23
Full

Hourly Weather History & Observations

Time (CDT) Temp. Dew Point Humidity Pressure Visibility Wind Dir Wind Speed Gust Speed Precip Events Conditions
12:15 AM 50.0 °F 48.2 °F 94% 29.90 in 10.0 mi East 10.4 mph - N/A Rain Rain
12:35 AM 50.0 °F 48.2 °F 94% 29.89 in 10.0 mi East 9.2 mph - N/A   Drizzle
12:55 AM 50.0 °F 48.2 °F 94% 29.88 in 10.0 mi East 10.4 mph - N/A   Overcast
1:15 AM 50.0 °F 48.2 °F 94% 29.88 in 10.0 mi East 11.5 mph - N/A   Overcast
1:35 AM 50.0 °F 48.2 °F 94% 29.87 in 10.0 mi East 11.5 mph - N/A   Overcast
1:55 AM 50.0 °F 48.2 °F 94% 29.87 in 10.0 mi East 9.2 mph - N/A   Overcast
2:15 AM 50.0 °F 48.2 °F 94% 29.86 in 10.0 mi East 10.4 mph - N/A   Overcast
2:35 AM 51.8 °F 48.2 °F 88% 29.86 in 10.0 mi East 8.1 mph - N/A   Overcast
2:55 AM 51.8 °F 48.2 °F 88% 29.84 in 7.0 mi East 10.4 mph - N/A   Overcast
3:15 AM 51.8 °F 48.2 °F 88% 29.83 in 7.0 mi ESE 11.5 mph - N/A   Overcast
3:35 AM 51.8 °F 48.2 °F 88% 29.83 in 7.0 mi East 11.5 mph - N/A   Overcast
3:55 AM 51.8 °F 48.2 °F 88% 29.83 in 7.0 mi East 10.4 mph - N/A   Overcast
4:15 AM 51.8 °F 48.2 °F 88% 29.83 in 7.0 mi East 10.4 mph - N/A   Overcast
4:35 AM 51.8 °F 48.2 °F 88% 29.83 in 7.0 mi East 9.2 mph - N/A   Overcast
4:55 AM 51.8 °F 48.2 °F 88% 29.82 in 5.0 mi East 11.5 mph - N/A   Overcast
5:15 AM 50.0 °F 48.2 °F 94% 29.81 in 7.0 mi East 15.0 mph 19.6 mph N/A   Overcast
5:35 AM 50.0 °F 48.2 °F 94% 29.80 in 10.0 mi East 11.5 mph - N/A   Overcast
5:55 AM 50.0 °F 48.2 °F 94% 29.80 in 10.0 mi East 10.4 mph - N/A   Overcast
6:15 AM 50.0 °F 46.4 °F 87% 29.81 in 10.0 mi East 10.4 mph - N/A   Overcast
6:35 AM 50.0 °F 46.4 °F 87% 29.81 in 10.0 mi East 9.2 mph - N/A   Overcast
6:55 AM 50.0 °F 46.4 °F 87% 29.80 in 10.0 mi East 12.7 mph - N/A   Overcast
7:15 AM 50.0 °F 46.4 °F 87% 29.80 in 10.0 mi East 10.4 mph - N/A   Overcast
7:35 AM 50.0 °F 46.4 °F 87% 29.80 in 10.0 mi East 10.4 mph - N/A   Overcast
7:55 AM 51.8 °F 48.2 °F 88% 29.78 in 10.0 mi East 11.5 mph - N/A   Overcast
8:15 AM 51.8 °F 48.2 °F 88% 29.77 in 10.0 mi East 10.4 mph - N/A   Overcast
8:35 AM 51.8 °F 48.2 °F 88% 29.78 in 10.0 mi East 11.5 mph - N/A   Overcast
8:55 AM 51.8 °F 48.2 °F 88% 29.78 in 10.0 mi East 11.5 mph - N/A   Overcast
9:15 AM 51.8 °F 48.2 °F 88% 29.78 in 7.0 mi East 9.2 mph - N/A   Overcast
9:35 AM 53.6 °F 50.0 °F 88% 29.78 in 10.0 mi East 11.5 mph - N/A   Overcast
9:55 AM 53.6 °F 50.0 °F 88% 29.76 in 7.0 mi East 13.8 mph 17.3 mph N/A   Light Drizzle
10:15 AM 53.6 °F 51.8 °F 94% 29.76 in 7.0 mi East 11.5 mph - N/A   Overcast
10:35 AM 53.6 °F 51.8 °F 94% 29.76 in 7.0 mi East 9.2 mph - N/A   Overcast
10:55 AM 53.6 °F 51.8 °F 94% 29.77 in 7.0 mi East 6.9 mph - N/A   Overcast
11:15 AM 53.6 °F 51.8 °F 94% 29.77 in 7.0 mi East 8.1 mph - N/A   Overcast
11:35 AM 53.6 °F 51.8 °F 94% 29.76 in 7.0 mi East 10.4 mph - N/A   Overcast
11:55 AM 55.4 °F 51.8 °F 88% 29.77 in 7.0 mi East 9.2 mph - N/A   Overcast
12:15 PM 55.4 °F 51.8 °F 88% 29.76 in 7.0 mi East 10.4 mph - N/A   Overcast
12:35 PM 55.4 °F 53.6 °F 94% 29.76 in 7.0 mi East 9.2 mph - N/A   Overcast
12:55 PM 55.4 °F 53.6 °F 94% 29.76 in 7.0 mi East 6.9 mph - N/A   Overcast
1:15 PM 55.4 °F 51.8 °F 88% 29.76 in 5.0 mi ESE 8.1 mph - N/A   Overcast
1:35 PM 55.4 °F 51.8 °F 88% 29.75 in 5.0 mi East 8.1 mph - N/A   Overcast
1:55 PM 55.4 °F 53.6 °F 94% 29.75 in 7.0 mi East 6.9 mph - N/A   Overcast
2:15 PM 55.4 °F 53.6 °F 94% 29.75 in 7.0 mi East 6.9 mph - N/A   Overcast
2:35 PM 55.4 °F 53.6 °F 94% 29.76 in 3.0 mi East 8.1 mph - N/A Rain Rain
2:55 PM 57.2 °F 53.6 °F 88% 29.75 in 3.0 mi East 8.1 mph - N/A   Overcast
3:15 PM 55.4 °F 53.6 °F 94% 29.75 in 5.0 mi ESE 8.1 mph - N/A   Overcast
3:35 PM 55.4 °F 53.6 °F 94% 29.76 in 5.0 mi East 6.9 mph - N/A   Overcast
3:55 PM 55.4 °F 53.6 °F 94% 29.76 in 3.0 mi ESE 6.9 mph - N/A   Overcast
4:15 PM 55.4 °F 53.6 °F 94% 29.76 in 2.5 mi ESE 5.8 mph - N/A   Overcast
4:35 PM 55.4 °F 53.6 °F 94% 29.76 in 3.0 mi ESE 6.9 mph - N/A Rain Light Rain
4:55 PM 55.4 °F 53.6 °F 94% 29.75 in 4.0 mi ESE 6.9 mph - N/A   Overcast
5:15 PM 55.4 °F 53.6 °F 94% 29.75 in 2.0 mi ESE 8.1 mph - N/A   Overcast
5:35 PM 55.4 °F 53.6 °F 94% 29.76 in 1.5 mi Calm Calm - N/A   Light Drizzle
5:55 PM 55.4 °F 53.6 °F 94% 29.77 in 1.5 mi Calm Calm - N/A Rain Light Rain
6:15 PM 55.4 °F 53.6 °F 94% 29.76 in 1.2 mi Calm Calm - N/A Rain Rain
6:35 PM 55.4 °F 53.6 °F 94% 29.77 in 3.0 mi Calm Calm - N/A Rain Light Rain
6:55 PM 55.4 °F 53.6 °F 94% 29.76 in 2.5 mi Calm Calm - N/A   Light Drizzle
7:15 PM 55.4 °F 55.4 °F 100% 29.76 in 1.8 mi SSE 5.8 mph - N/A Rain Light Rain
7:35 PM 55.4 °F 53.6 °F 94% 29.75 in 3.0 mi Calm Calm - N/A   Overcast
7:55 PM 55.4 °F 53.6 °F 94% 29.73 in 7.0 mi SE 3.5 mph - N/A   Overcast
8:15 PM 55.4 °F 53.6 °F 94% 29.73 in 7.0 mi Calm Calm - N/A   Overcast
8:35 PM 55.4 °F 53.6 °F 94% 29.73 in 7.0 mi Calm Calm - N/A   Overcast
8:55 PM 55.4 °F 53.6 °F 94% 29.73 in 7.0 mi Calm Calm - N/A   Overcast
9:15 PM 55.4 °F 53.6 °F 94% 29.74 in 4.0 mi Calm Calm - N/A   Overcast
9:35 PM 55.4 °F 53.6 °F 94% 29.76 in 7.0 mi Calm Calm - N/A   Overcast
9:55 PM 55.4 °F 53.6 °F 94% 29.78 in 7.0 mi SSE 3.5 mph - N/A   Overcast
10:15 PM 55.4 °F 53.6 °F 94% 29.77 in 2.0 mi SE 4.6 mph - N/A   Overcast
10:35 PM 55.4 °F 53.6 °F 94% 29.78 in 1.5 mi SSE 4.6 mph - N/A   Overcast
10:55 PM 55.4 °F 53.6 °F 94% 29.77 in 1.0 mi Calm Calm - N/A   Overcast
11:15 PM 55.4 °F 53.6 °F 94% 29.78 in 0.8 mi Calm Calm - N/A   Overcast
11:35 PM 55.4 °F 53.6 °F 94% 29.78 in 0.5 mi Calm Calm - N/A Fog Fog
11:55 PM 55.4 °F 53.6 °F 94% 29.78 in 0.2 mi Calm Calm - N/A Fog Fog